contact:dominique.lefevre@mio.osupytheas.fr, maurice.libes@osupytheas.fr, didier.mallarino@osupytheas.fr
Project:EMSO http://www.emso-fr.org/EMSO-France
Depth: 2436.0 m
Title:EMSO Ligure Ouest : Data MII capteur CSTAR
DateTime,Latitude,Longitude,Instrument_Serial,Reference_Counts,Signal_Counts,Corrected_Signal_raw_counts,Calculated_Beam_c_inverse_meters,Internal_thermistor_counts
DateTime,Latitude,Longitude,Instrument_Serial,Reference_Counts,Signal_Counts,Corrected_Signal_raw_counts,Calculated_Beam_c_inverse_meters,Internal_thermistor_counts
2023-05-09T00:00:33,42.805,6.029,CST-1368DR,4303,4698,11591,01.192,551
2023-05-09T00:03:34,42.805,6.029,CST-1368DR,4303,4705,11608,01.186,552
2023-05-09T00:06:36,42.805,6.029,CST-1368DR,4303,4698,11592,01.192,551
2023-05-09T00:09:38,42.805,6.029,CST-1368DR,4303,4695,11584,01.195,551
2023-05-09T00:12:39,42.805,6.029,CST-1368DR,4303,4695,11583,01.195,552
2023-05-09T00:15:41,42.805,6.029,CST-1368DR,4303,4700,11595,01.191,552
2023-05-09T00:18:42,42.805,6.029,CST-1368DR,4303,4701,11599,01.190,552
2023-05-09T00:21:44,42.805,6.029,CST-1368DR,4303,4698,11591,01.192,552
2023-05-09T00:24:45,42.805,6.029,CST-1368DR,4303,4706,11610,01.186,551
2023-05-09T00:27:47,42.805,6.029,CST-1368DR,4303,4700,11596,01.191,551
2023-05-09T00:30:49,42.805,6.029,CST-1368DR,4303,4702,11601,01.189,552
2023-05-09T00:33:50,42.805,6.029,CST-1368DR,4303,4700,11595,01.191,552
2023-05-09T00:36:52,42.805,6.029,CST-1368DR,4303,4700,11597,01.190,552
2023-05-09T00:39:53,42.805,6.029,CST-1368DR,4303,4700,11595,01.191,552
2023-05-09T00:42:55,42.805,6.029,CST-1368DR,4303,4697,11589,01.193,552
2023-05-09T00:45:56,42.805,6.029,CST-1368DR,4303,4698,11592,01.192,552
2023-05-09T00:48:58,42.805,6.029,CST-1368DR,4303,4697,11589,01.193,552
2023-05-09T00:52:00,42.805,6.029,CST-1368DR,4303,4700,11596,01.191,552
2023-05-09T00:55:01,42.805,6.029,CST-1368DR,4303,4700,11595,01.191,551
2023-05-09T00:58:03,42.805,6.029,CST-1368DR,4303,4701,11600,01.189,552
2023-05-09T01:01:04,42.805,6.029,CST-1368DR,4303,4703,11603,01.188,551
2023-05-09T01:04:06,42.805,6.029,CST-1368DR,4303,4704,11605,01.187,552
2023-05-09T01:07:08,42.805,6.029,CST-1368DR,4303,4699,11595,01.191,551
2023-05-09T01:10:09,42.805,6.029,CST-1368DR,4303,4701,11598,01.190,551
2023-05-09T01:13:11,42.805,6.029,CST-1368DR,4303,4698,11590,01.193,551
2023-05-09T01:16:12,42.805,6.029,CST-1368DR,4303,4699,11593,01.192,552
2023-05-09T01:19:14,42.805,6.029,CST-1368DR,4303,4699,11594,01.191,551
2023-05-09T01:22:15,42.805,6.029,CST-1368DR,4303,4699,11594,01.191,552
2023-05-09T01:25:17,42.805,6.029,CST-1368DR,4303,4700,11597,01.190,552
2023-05-09T01:28:19,42.805,6.029,CST-1368DR,4303,4701,11600,01.189,551
2023-05-09T01:31:20,42.805,6.029,CST-1368DR,4303,4701,11600,01.189,552
2023-05-09T01:34:22,42.805,6.029,CST-1368DR,4303,4703,11603,01.188,551
2023-05-09T01:37:23,42.805,6.029,CST-1368DR,4303,4703,11603,01.188,551
2023-05-09T01:40:25,42.805,6.029,CST-1368DR,4303,4688,11566,01.201,552
2023-05-09T01:43:26,42.805,6.029,CST-1368DR,4303,4699,11593,01.192,552
2023-05-09T01:46:28,42.805,6.029,CST-1368DR,4303,4701,11599,01.190,552
2023-05-09T01:49:30,42.805,6.029,CST-1368DR,4303,4700,11597,01.190,552
2023-05-09T01:52:31,42.805,6.029,CST-1368DR,4303,4701,11599,01.190,551
2023-05-09T01:55:33,42.805,6.029,CST-1368DR,4303,4696,11587,01.194,552
2023-05-09T01:58:34,42.805,6.029,CST-1368DR,4303,4699,11594,01.191,552
2023-05-09T02:01:36,42.805,6.029,CST-1368DR,4303,4696,11587,01.194,552
2023-05-09T02:04:37,42.805,6.029,CST-1368DR,4303,4697,11589,01.193,552
2023-05-09T02:07:39,42.805,6.029,CST-1368DR,4303,4696,11586,01.194,551
2023-05-09T02:10:41,42.805,6.029,CST-1368DR,4303,4698,11590,01.193,552
2023-05-09T02:13:42,42.805,6.029,CST-1368DR,4303,4699,11593,01.192,552
2023-05-09T02:16:44,42.805,6.029,CST-1368DR,4303,4700,11597,01.190,552
2023-05-09T02:19:45,42.805,6.029,CST-1368DR,4303,4699,11595,01.191,552
2023-05-09T02:22:47,42.805,6.029,CST-1368DR,4303,4697,11589,01.193,552
2023-05-09T02:25:49,42.805,6.029,CST-1368DR,4303,4701,11599,01.190,551
2023-05-09T02:28:50,42.805,6.029,CST-1368DR,4303,4696,11586,01.194,552
2023-05-09T02:31:52,42.805,6.029,CST-1368DR,4303,4699,11594,01.191,551
2023-05-09T02:34:53,42.805,6.029,CST-1368DR,4303,4698,11592,01.192,551
2023-05-09T02:37:55,42.805,6.029,CST-1368DR,4303,4699,11594,01.191,552
2023-05-09T02:40:56,42.805,6.029,CST-1368DR,4303,4700,11595,01.191,552
2023-05-09T02:43:58,42.805,6.029,CST-1368DR,4303,4702,11602,01.188,552
2023-05-09T02:47:00,42.805,6.029,CST-1368DR,4303,4699,11594,01.191,552
2023-05-09T02:50:01,42.805,6.029,CST-1368DR,4303,4702,11600,01.189,552
2023-05-09T02:53:03,42.805,6.029,CST-1368DR,4303,4703,11603,01.188,552
2023-05-09T02:56:04,42.805,6.029,CST-1368DR,4303,4699,11593,01.192,552
2023-05-09T02:59:06,42.805,6.029,CST-1368DR,4303,4699,11593,01.192,552
2023-05-09T03:02:07,42.805,6.029,CST-1368DR,4303,4696,11587,01.194,551
2023-05-09T03:05:09,42.805,6.029,CST-1368DR,4303,4700,11597,01.190,551
2023-05-09T03:08:11,42.805,6.029,CST-1368DR,4303,4700,11596,01.191,552
2023-05-09T03:11:12,42.805,6.029,CST-1368DR,4303,4702,11602,01.188,552
2023-05-09T03:14:14,42.805,6.029,CST-1368DR,4303,4699,11594,01.191,552
2023-05-09T03:17:15,42.805,6.029,CST-1368DR,4303,4702,11601,01.189,552
2023-05-09T03:20:17,42.805,6.029,CST-1368DR,4303,4700,11597,01.190,552
2023-05-09T03:23:19,42.805,6.029,CST-1368DR,4303,4701,11598,01.190,551
2023-05-09T03:26:20,42.805,6.029,CST-1368DR,4303,4697,11589,01.193,551
2023-05-09T03:29:22,42.805,6.029,CST-1368DR,4303,4698,11590,01.193,552
2023-05-09T03:32:23,42.805,6.029,CST-1368DR,4303,4705,11610,01.186,552
2023-05-09T03:35:25,42.805,6.029,CST-1368DR,4303,4703,11603,01.188,551
2023-05-09T03:38:26,42.805,6.029,CST-1368DR,4303,4701,11599,01.190,552
2023-05-09T03:41:28,42.805,6.029,CST-1368DR,4303,4702,11602,01.188,552
2023-05-09T03:44:30,42.805,6.029,CST-1368DR,4303,4720,11645,01.174,552
2023-05-09T03:47:31,42.805,6.029,CST-1368DR,4303,4700,11596,01.191,552
2023-05-09T03:50:33,42.805,6.029,CST-1368DR,4303,4697,11589,01.193,551
2023-05-09T03:53:34,42.805,6.029,CST-1368DR,4303,4706,11610,01.186,552
2023-05-09T03:56:36,42.805,6.029,CST-1368DR,4303,4702,11602,01.188,551
2023-05-09T03:59:37,42.805,6.029,CST-1368DR,4303,4704,11607,01.187,552
2023-05-09T04:02:39,42.805,6.029,CST-1368DR,4303,4661,11500,01.224,552
2023-05-09T04:05:41,42.805,6.029,CST-1368DR,4303,4704,11606,01.187,552
2023-05-09T04:08:42,42.805,6.029,CST-1368DR,4303,4705,11608,01.186,552
2023-05-09T04:11:44,42.805,6.029,CST-1368DR,4303,4705,11608,01.186,552
2023-05-09T04:14:45,42.805,6.029,CST-1368DR,4303,4704,11605,01.187,552
2023-05-09T04:17:47,42.805,6.029,CST-1368DR,4303,4704,11605,01.187,551
2023-05-09T04:20:49,42.805,6.029,CST-1368DR,4303,4704,11606,01.187,552
2023-05-09T04:23:50,42.805,6.029,CST-1368DR,4303,4704,11605,01.187,552
2023-05-09T04:26:52,42.805,6.029,CST-1368DR,4303,4711,11624,01.181,552
2023-05-09T04:29:53,42.805,6.029,CST-1368DR,4303,4704,11606,01.187,552
2023-05-09T04:32:57,42.805,6.029,CST-1368DR,4303,4715,11634,01.177,552
2023-05-09T04:35:58,42.805,6.029,CST-1368DR,4303,4706,11610,01.186,552
2023-05-09T04:39:00,42.805,6.029,CST-1368DR,4303,4704,11605,01.187,552
2023-05-09T04:42:01,42.805,6.029,CST-1368DR,4303,4704,11605,01.187,552
2023-05-09T04:45:03,42.805,6.029,CST-1368DR,4303,4704,11607,01.187,552
2023-05-09T04:48:04,42.805,6.029,CST-1368DR,4303,4704,11605,01.187,552
2023-05-09T04:51:06,42.805,6.029,CST-1368DR,4303,4703,11604,01.188,552
2023-05-09T04:54:08,42.805,6.029,CST-1368DR,4303,4704,11606,01.187,552
2023-05-09T04:57:09,42.805,6.029,CST-1368DR,4303,4703,11604,01.188,552
2023-05-09T05:00:11,42.805,6.029,CST-1368DR,4303,4703,11604,01.188,552
2023-05-09T05:03:12,42.805,6.029,CST-1368DR,4303,4703,11604,01.188,552
2023-05-09T05:06:14,42.805,6.029,CST-1368DR,4303,4702,11602,01.188,552
2023-05-09T05:09:16,42.805,6.029,CST-1368DR,4303,4700,11597,01.190,552
2023-05-09T05:12:17,42.805,6.029,CST-1368DR,4303,4701,11600,01.189,552
2023-05-09T05:15:19,42.805,6.029,CST-1368DR,4303,4701,11598,01.190,552
2023-05-09T05:18:20,42.805,6.029,CST-1368DR,4303,4699,11595,01.191,552
2023-05-09T05:21:22,42.805,6.029,CST-1368DR,4303,4700,11596,01.191,552
2023-05-09T05:24:23,42.805,6.029,CST-1368DR,4303,4700,11595,01.191,552
2023-05-09T05:27:25,42.805,6.029,CST-1368DR,4303,4699,11593,01.192,552
2023-05-09T05:30:27,42.805,6.029,CST-1368DR,4303,4702,11602,01.188,552
2023-05-09T05:33:28,42.805,6.029,CST-1368DR,4303,4700,11597,01.190,552
2023-05-09T05:36:30,42.805,6.029,CST-1368DR,4303,4702,11602,01.188,552
2023-05-09T05:39:31,42.805,6.029,CST-1368DR,4303,4701,11600,01.189,551
2023-05-09T05:42:33,42.805,6.029,CST-1368DR,4303,4705,11609,01.186,552
2023-05-09T05:45:34,42.805,6.029,CST-1368DR,4303,4710,11621,01.182,551
2023-05-09T05:48:36,42.805,6.029,CST-1368DR,4303,4704,11606,01.187,552
2023-05-09T05:51:38,42.805,6.029,CST-1368DR,4303,4706,11611,01.185,551
2023-05-09T05:54:39,42.805,6.029,CST-1368DR,4303,4705,11610,01.186,552
2023-05-09T05:57:41,42.805,6.029,CST-1368DR,4303,4705,11608,01.186,552
2023-05-09T06:00:42,42.805,6.029,CST-1368DR,4303,4700,11596,01.191,552
2023-05-09T06:03:44,42.805,6.029,CST-1368DR,4303,4706,11611,01.185,552
2023-05-09T06:06:46,42.805,6.029,CST-1368DR,4303,4704,11606,01.187,552
2023-05-09T06:09:47,42.805,6.029,CST-1368DR,4303,4701,11598,01.190,552
2023-05-09T06:12:49,42.805,6.029,CST-1368DR,4303,4703,11604,01.188,552
2023-05-09T06:15:50,42.805,6.029,CST-1368DR,4303,4703,11603,01.188,551
2023-05-09T06:18:52,42.805,6.029,CST-1368DR,4303,4702,11600,01.189,552
2023-05-09T06:21:53,42.805,6.029,CST-1368DR,4303,4705,11609,01.186,552
2023-05-09T06:24:55,42.805,6.029,CST-1368DR,4303,4705,11608,01.186,552
2023-05-09T06:27:57,42.805,6.029,CST-1368DR,4303,4704,11605,01.187,552
2023-05-09T06:30:58,42.805,6.029,CST-1368DR,4303,4703,11603,01.188,552
2023-05-09T06:34:00,42.805,6.029,CST-1368DR,4303,4706,11611,01.185,552
2023-05-09T06:37:01,42.805,6.029,CST-1368DR,4303,4704,11606,01.187,552
2023-05-09T06:40:03,42.805,6.029,CST-1368DR,4303,4704,11607,01.187,552
2023-05-09T06:43:04,42.805,6.029,CST-1368DR,4303,4706,11611,01.185,551
2023-05-09T06:46:06,42.805,6.029,CST-1368DR,4303,4705,11608,01.186,552
2023-05-09T06:49:08,42.805,6.029,CST-1368DR,4303,4704,11607,01.187,552
2023-05-09T06:52:09,42.805,6.029,CST-1368DR,4303,4702,11602,01.188,552
2023-05-09T06:55:11,42.805,6.029,CST-1368DR,4303,4702,11602,01.188,552
2023-05-09T06:58:12,42.805,6.029,CST-1368DR,4303,4706,11611,01.185,551
2023-05-09T07:01:14,42.805,6.029,CST-1368DR,4303,4699,11595,01.191,552
2023-05-09T07:04:15,42.805,6.029,CST-1368DR,4303,4706,11611,01.185,552
2023-05-09T07:07:17,42.805,6.029,CST-1368DR,4303,4702,11601,01.189,552
2023-05-09T07:10:19,42.805,6.029,CST-1368DR,4303,4704,11607,01.187,552
2023-05-09T07:13:20,42.805,6.029,CST-1368DR,4303,4704,11605,01.187,552
2023-05-09T07:16:22,42.805,6.029,CST-1368DR,4303,4705,11608,01.186,551
2023-05-09T07:19:23,42.805,6.029,CST-1368DR,4303,4703,11603,01.188,552
2023-05-09T07:22:25,42.805,6.029,CST-1368DR,4303,4702,11602,01.188,552
2023-05-09T07:25:27,42.805,6.029,CST-1368DR,4303,4703,11604,01.188,552
2023-05-09T07:28:28,42.805,6.029,CST-1368DR,4303,4703,11603,01.188,552
2023-05-09T07:31:30,42.805,6.029,CST-1368DR,4303,4703,11603,01.188,552
2023-05-09T07:34:31,42.805,6.029,CST-1368DR,4303,4702,11602,01.188,552
2023-05-09T07:37:33,42.805,6.029,CST-1368DR,4303,4701,11600,01.189,552
2023-05-09T07:40:34,42.805,6.029,CST-1368DR,4303,4696,11587,01.194,552
2023-05-09T07:43:36,42.805,6.029,CST-1368DR,4303,4699,11594,01.191,551
2023-05-09T07:46:38,42.805,6.029,CST-1368DR,4303,4700,11595,01.191,552
2023-05-09T07:49:39,42.805,6.029,CST-1368DR,4303,4699,11594,01.191,552
2023-05-09T07:52:41,42.805,6.029,CST-1368DR,4303,4700,11597,01.190,552
2023-05-09T07:55:42,42.805,6.029,CST-1368DR,4303,4701,11598,01.190,552
2023-05-09T07:58:44,42.805,6.029,CST-1368DR,4303,4701,11600,01.189,552
2023-05-09T08:01:45,42.805,6.029,CST-1368DR,4303,4702,11602,01.188,551
2023-05-09T08:04:47,42.805,6.029,CST-1368DR,4303,4702,11601,01.189,552
2023-05-09T08:07:49,42.805,6.029,CST-1368DR,4303,4703,11604,01.188,552
2023-05-09T08:10:50,42.805,6.029,CST-1368DR,4303,4701,11600,01.189,552
2023-05-09T08:13:52,42.805,6.029,CST-1368DR,4303,4699,11595,01.191,552
2023-05-09T08:16:53,42.805,6.029,CST-1368DR,4303,4700,11596,01.191,552
2023-05-09T08:19:55,42.805,6.029,CST-1368DR,4303,4700,11596,01.191,552
2023-05-09T08:22:57,42.805,6.029,CST-1368DR,4303,4699,11594,01.191,552
2023-05-09T08:25:58,42.805,6.029,CST-1368DR,4303,4699,11593,01.192,551
2023-05-09T08:29:00,42.805,6.029,CST-1368DR,4303,4699,11593,01.192,552
2023-05-09T08:32:01,42.805,6.029,CST-1368DR,4303,4709,11618,01.183,551
2023-05-09T08:35:03,42.805,6.029,CST-1368DR,4303,4699,11594,01.191,552
2023-05-09T08:38:04,42.805,6.029,CST-1368DR,4303,4701,11598,01.190,552
2023-05-09T08:41:06,42.805,6.029,CST-1368DR,4303,4702,11602,01.188,552
2023-05-09T08:44:08,42.805,6.029,CST-1368DR,4303,4702,11601,01.189,552
2023-05-09T08:47:09,42.805,6.029,CST-1368DR,4303,4702,11602,01.188,552
2023-05-09T08:50:11,42.805,6.029,CST-1368DR,4303,4700,11597,01.190,551
2023-05-09T08:53:12,42.805,6.029,CST-1368DR,4303,4699,11593,01.192,552
2023-05-09T08:56:14,42.805,6.029,CST-1368DR,4303,4700,11597,01.190,552
2023-05-09T08:59:15,42.805,6.029,CST-1368DR,4303,4700,11595,01.191,551
2023-05-09T09:02:17,42.805,6.029,CST-1368DR,4303,4702,11602,01.188,552
2023-05-09T09:05:19,42.805,6.029,CST-1368DR,4303,4700,11597,01.190,552
2023-05-09T09:08:20,42.805,6.029,CST-1368DR,4303,4700,11597,01.190,552
2023-05-09T09:11:22,42.805,6.029,CST-1368DR,4303,4699,11595,01.191,552
2023-05-09T09:14:23,42.805,6.029,CST-1368DR,4303,4701,11598,01.190,552
2023-05-09T09:17:25,42.805,6.029,CST-1368DR,4303,4701,11598,01.190,552
2023-05-09T09:20:27,42.805,6.029,CST-1368DR,4303,4701,11600,01.189,552
2023-05-09T09:23:28,42.805,6.029,CST-1368DR,4302,4698,11595,01.191,552
2023-05-09T09:26:30,42.805,6.029,CST-1368DR,4302,4694,11583,01.195,552
2023-05-09T09:29:31,42.805,6.029,CST-1368DR,4303,4699,11595,01.191,552
2023-05-09T09:32:33,42.805,6.029,CST-1368DR,4303,4699,11594,01.191,551
2023-05-09T09:35:34,42.805,6.029,CST-1368DR,4303,4698,11590,01.193,551
2023-05-09T09:38:36,42.805,6.029,CST-1368DR,4303,4698,11592,01.192,552
2023-05-09T09:41:38,42.805,6.029,CST-1368DR,4303,4700,11595,01.191,552
2023-05-09T09:44:39,42.805,6.029,CST-1368DR,4303,4698,11592,01.192,552
2023-05-09T09:47:41,42.805,6.029,CST-1368DR,4303,4696,11586,01.194,552
2023-05-09T09:50:42,42.805,6.029,CST-1368DR,4302,4698,11594,01.191,552
2023-05-09T09:53:44,42.805,6.029,CST-1368DR,4302,4695,11586,01.194,552
2023-05-09T09:56:45,42.805,6.029,CST-1368DR,4302,4697,11591,01.192,552
2023-05-09T09:59:47,42.805,6.029,CST-1368DR,4302,4697,11592,01.192,552
2023-05-09T10:02:49,42.805,6.029,CST-1368DR,4303,4697,11589,01.193,551
2023-05-09T10:05:50,42.805,6.029,CST-1368DR,4302,4696,11589,01.193,552
2023-05-09T10:08:52,42.805,6.029,CST-1368DR,4302,4689,11572,01.199,552
2023-05-09T10:11:53,42.805,6.029,CST-1368DR,4303,4692,11577,01.197,552
2023-05-09T10:14:55,42.805,6.029,CST-1368DR,4303,4694,11581,01.196,552
2023-05-09T10:17:56,42.805,6.029,CST-1368DR,4303,4692,11576,01.197,551
2023-05-09T10:20:58,42.805,6.029,CST-1368DR,4303,4696,11587,01.194,552
2023-05-09T10:24:00,42.805,6.029,CST-1368DR,4302,4686,11565,01.201,552
2023-05-09T10:27:01,42.805,6.029,CST-1368DR,4303,4695,11584,01.195,552
2023-05-09T10:30:03,42.805,6.029,CST-1368DR,4303,4695,11583,01.195,552
2023-05-09T10:33:04,42.805,6.029,CST-1368DR,4302,4692,11579,01.196,551
2023-05-09T10:36:06,42.805,6.029,CST-1368DR,4302,4689,11573,01.198,552
2023-05-09T10:39:08,42.805,6.029,CST-1368DR,4302,4687,11567,01.201,552
2023-05-09T10:42:09,42.805,6.029,CST-1368DR,4303,4690,11572,01.199,552
2023-05-09T10:45:11,42.805,6.029,CST-1368DR,4302,4692,11578,01.197,552
2023-05-09T10:48:12,42.805,6.029,CST-1368DR,4302,4693,11582,01.195,552
2023-05-09T10:51:14,42.805,6.029,CST-1368DR,4302,4692,11579,01.196,552
2023-05-09T10:54:15,42.805,6.029,CST-1368DR,4302,4687,11566,01.201,552
2023-05-09T10:57:17,42.805,6.029,CST-1368DR,4302,4691,11577,01.197,552
2023-05-09T11:00:19,42.805,6.029,CST-1368DR,4302,4696,11588,01.193,552
2023-05-09T11:03:20,42.805,6.029,CST-1368DR,4302,4691,11576,01.197,552
2023-05-09T11:06:22,42.805,6.029,CST-1368DR,4302,4690,11575,01.198,551
2023-05-09T11:09:23,42.805,6.029,CST-1368DR,4302,4690,11573,01.198,551
2023-05-09T11:12:25,42.805,6.029,CST-1368DR,4302,4688,11570,01.200,552
2023-05-09T11:15:26,42.805,6.029,CST-1368DR,4302,4688,11568,01.200,552
2023-05-09T11:18:28,42.805,6.029,CST-1368DR,4302,4687,11566,01.201,552
2023-05-09T11:21:30,42.805,6.029,CST-1368DR,4302,4685,11562,01.202,552
2023-05-09T11:24:31,42.805,6.029,CST-1368DR,4302,4687,11566,01.201,552
2023-05-09T11:27:33,42.805,6.029,CST-1368DR,4302,4690,11573,01.198,552
2023-05-09T11:30:34,42.805,6.029,CST-1368DR,4302,4688,11570,01.200,552
2023-05-09T11:33:36,42.805,6.029,CST-1368DR,4302,4687,11567,01.201,552
2023-05-09T11:36:38,42.805,6.029,CST-1368DR,4302,4690,11574,01.198,552
2023-05-09T11:39:39,42.805,6.029,CST-1368DR,4302,4687,11567,01.201,552
2023-05-09T11:42:41,42.805,6.029,CST-1368DR,4302,4687,11566,01.201,552
2023-05-09T11:45:42,42.805,6.029,CST-1368DR,4303,4690,11572,01.199,552
2023-05-09T11:48:44,42.805,6.029,CST-1368DR,4302,4691,11576,01.197,552
2023-05-09T11:51:45,42.805,6.029,CST-1368DR,4302,4688,11570,01.200,552
2023-05-09T11:54:47,42.805,6.029,CST-1368DR,4302,4688,11568,01.200,551
2023-05-09T11:57:49,42.805,6.029,CST-1368DR,4302,4687,11567,01.201,552
2023-05-09T12:00:50,42.805,6.029,CST-1368DR,4302,4693,11581,01.196,552
2023-05-09T12:03:52,42.805,6.029,CST-1368DR,4303,4694,11581,01.196,552
2023-05-09T12:06:53,42.805,6.029,CST-1368DR,4302,4690,11573,01.198,552
2023-05-09T12:09:55,42.805,6.029,CST-1368DR,4302,4688,11570,01.200,552
2023-05-09T12:12:56,42.805,6.029,CST-1368DR,4302,4690,11575,01.198,552
2023-05-09T12:15:58,42.805,6.029,CST-1368DR,4302,4686,11565,01.201,552
2023-05-09T12:19:00,42.805,6.029,CST-1368DR,4302,4690,11575,01.198,552
2023-05-09T12:22:01,42.805,6.029,CST-1368DR,4302,4689,11572,01.199,552
2023-05-09T12:25:03,42.805,6.029,CST-1368DR,4302,4691,11578,01.197,552
2023-05-09T12:28:04,42.805,6.029,CST-1368DR,4302,4688,11570,01.200,552
2023-05-09T12:31:06,42.805,6.029,CST-1368DR,4302,4691,11578,01.197,552
2023-05-09T12:34:07,42.805,6.029,CST-1368DR,4302,4689,11571,01.199,551
2023-05-09T12:37:09,42.805,6.029,CST-1368DR,4302,4683,11558,01.204,551
2023-05-09T12:40:11,42.805,6.029,CST-1368DR,4302,4694,11583,01.195,551
2023-05-09T12:43:12,42.805,6.029,CST-1368DR,4302,4690,11575,01.198,552
2023-05-09T12:46:14,42.805,6.029,CST-1368DR,4302,4689,11571,01.199,552
2023-05-09T12:49:15,42.805,6.029,CST-1368DR,4302,4689,11572,01.199,552
2023-05-09T12:52:17,42.805,6.029,CST-1368DR,4302,4689,11572,01.199,551
2023-05-09T12:55:19,42.805,6.029,CST-1368DR,4302,4689,11571,01.199,552
2023-05-09T12:58:20,42.805,6.029,CST-1368DR,4302,4692,11578,01.197,552
2023-05-09T13:01:22,42.805,6.029,CST-1368DR,4302,4692,11580,01.196,552
2023-05-09T13:04:23,42.805,6.029,CST-1368DR,4302,4690,11575,01.198,551
2023-05-09T13:07:25,42.805,6.029,CST-1368DR,4302,4690,11573,01.198,551
2023-05-09T13:10:26,42.805,6.029,CST-1368DR,4302,4690,11574,01.198,552
2023-05-09T13:13:28,42.805,6.029,CST-1368DR,4302,4691,11578,01.197,552
2023-05-09T13:16:30,42.805,6.029,CST-1368DR,4302,4689,11571,01.199,552
2023-05-09T13:19:31,42.805,6.029,CST-1368DR,4302,4693,11582,01.195,552
2023-05-09T13:22:33,42.805,6.029,CST-1368DR,4302,4690,11574,01.198,552
2023-05-09T13:25:34,42.805,6.029,CST-1368DR,4302,4692,11579,01.196,552
2023-05-09T13:28:36,42.805,6.029,CST-1368DR,4302,4690,11575,01.198,551
2023-05-09T13:31:37,42.805,6.029,CST-1368DR,4302,4692,11578,01.197,551
2023-05-09T13:34:39,42.805,6.029,CST-1368DR,4302,4692,11579,01.196,551
2023-05-09T13:37:41,42.805,6.029,CST-1368DR,4302,4693,11581,01.196,552
2023-05-09T13:40:42,42.805,6.029,CST-1368DR,4302,4694,11583,01.195,552
2023-05-09T13:43:44,42.805,6.029,CST-1368DR,4302,4693,11581,01.196,552
2023-05-09T13:46:45,42.805,6.029,CST-1368DR,4302,4692,11580,01.196,552
2023-05-09T13:49:47,42.805,6.029,CST-1368DR,4302,4693,11582,01.195,551
2023-05-09T13:52:49,42.805,6.029,CST-1368DR,4302,4693,11583,01.195,552
2023-05-09T13:55:50,42.805,6.029,CST-1368DR,4302,4691,11577,01.197,552
2023-05-09T13:58:52,42.805,6.029,CST-1368DR,4302,4693,11581,01.196,552
2023-05-09T14:01:53,42.805,6.029,CST-1368DR,4302,4692,11578,01.197,552
2023-05-09T14:04:55,42.805,6.029,CST-1368DR,4302,4690,11574,01.198,551
2023-05-09T14:07:56,42.805,6.029,CST-1368DR,4302,4693,11583,01.195,551
2023-05-09T14:10:58,42.805,6.029,CST-1368DR,4302,4691,11576,01.197,551
2023-05-09T14:14:00,42.805,6.029,CST-1368DR,4302,4691,11578,01.197,552
2023-05-09T14:17:01,42.805,6.029,CST-1368DR,4302,4693,11581,01.196,552
2023-05-09T14:20:03,42.805,6.029,CST-1368DR,4302,4691,11577,01.197,551
2023-05-09T14:23:04,42.805,6.029,CST-1368DR,4302,4691,11577,01.197,552
2023-05-09T14:26:06,42.805,6.029,CST-1368DR,4302,4693,11581,01.196,552
2023-05-09T14:29:07,42.805,6.029,CST-1368DR,4302,4692,11580,01.196,551
2023-05-09T14:32:09,42.805,6.029,CST-1368DR,4302,4692,11579,01.196,551
2023-05-09T14:35:10,42.805,6.029,CST-1368DR,4302,4692,11578,01.197,552
2023-05-09T14:38:12,42.805,6.029,CST-1368DR,4302,4694,11584,01.195,552
2023-05-09T14:41:14,42.805,6.029,CST-1368DR,4302,4692,11580,01.196,552
2023-05-09T14:44:15,42.805,6.029,CST-1368DR,4302,4695,11587,01.194,551
2023-05-09T14:47:17,42.805,6.029,CST-1368DR,4302,4695,11586,01.194,551
2023-05-09T14:50:18,42.805,6.029,CST-1368DR,4302,4693,11581,01.196,552
2023-05-09T14:53:20,42.805,6.029,CST-1368DR,4302,4692,11580,01.196,552
2023-05-09T14:56:21,42.805,6.029,CST-1368DR,4302,4689,11571,01.199,552
2023-05-09T14:59:23,42.805,6.029,CST-1368DR,4302,4690,11574,01.198,552
2023-05-09T15:02:25,42.805,6.029,CST-1368DR,4302,4691,11578,01.197,552
2023-05-09T15:05:26,42.805,6.029,CST-1368DR,4302,4690,11574,01.198,552
2023-05-09T15:08:28,42.805,6.029,CST-1368DR,4302,4689,11573,01.198,551
2023-05-09T15:11:29,42.805,6.029,CST-1368DR,4302,4692,11579,01.196,551
2023-05-09T15:14:31,42.805,6.029,CST-1368DR,4302,4691,11577,01.197,552
2023-05-09T15:17:32,42.805,6.029,CST-1368DR,4302,4692,11578,01.197,552
2023-05-09T15:20:34,42.805,6.029,CST-1368DR,4302,4690,11573,01.198,552
2023-05-09T15:23:36,42.805,6.029,CST-1368DR,4302,4692,11580,01.196,552
2023-05-09T15:26:37,42.805,6.029,CST-1368DR,4302,4692,11578,01.197,552
2023-05-09T15:29:39,42.805,6.029,CST-1368DR,4302,4693,11583,01.195,552
2023-05-09T15:32:40,42.805,6.029,CST-1368DR,4302,4692,11578,01.197,552
2023-05-09T15:35:42,42.805,6.029,CST-1368DR,4302,4693,11581,01.196,551
2023-05-09T15:38:44,42.805,6.029,CST-1368DR,4302,4694,11585,01.194,552
2023-05-09T15:41:45,42.805,6.029,CST-1368DR,4302,4694,11585,01.194,552
2023-05-09T15:44:47,42.805,6.029,CST-1368DR,4302,4693,11581,01.196,552
2023-05-09T15:47:48,42.805,6.029,CST-1368DR,4302,4697,11592,01.192,551
2023-05-09T15:50:50,42.805,6.029,CST-1368DR,4302,4695,11587,01.194,552
2023-05-09T15:53:51,42.805,6.029,CST-1368DR,4302,4694,11584,01.195,552
2023-05-09T15:56:53,42.805,6.029,CST-1368DR,4302,4691,11577,01.197,552
2023-05-09T15:59:55,42.805,6.029,CST-1368DR,4302,4692,11579,01.196,552
2023-05-09T16:02:56,42.805,6.029,CST-1368DR,4302,4695,11587,01.194,552
2023-05-09T16:05:58,42.805,6.029,CST-1368DR,4302,4690,11574,01.198,552
2023-05-09T16:08:59,42.805,6.029,CST-1368DR,4302,4692,11579,01.196,552
2023-05-09T16:12:01,42.805,6.029,CST-1368DR,4302,4695,11586,01.194,552
2023-05-09T16:15:02,42.805,6.029,CST-1368DR,4302,4691,11577,01.197,552
2023-05-09T16:18:04,42.805,6.029,CST-1368DR,4302,4693,11582,01.195,552
2023-05-09T16:21:06,42.805,6.029,CST-1368DR,4302,4692,11579,01.196,552
2023-05-09T16:24:07,42.805,6.029,CST-1368DR,4302,4694,11584,01.195,552
2023-05-09T16:27:09,42.805,6.029,CST-1368DR,4302,4694,11583,01.195,552
2023-05-09T16:30:10,42.805,6.029,CST-1368DR,4302,4692,11579,01.196,552
2023-05-09T16:33:12,42.805,6.029,CST-1368DR,4302,4695,11586,01.194,552
2023-05-09T16:36:14,42.805,6.029,CST-1368DR,4302,4696,11588,01.193,552